www.pogodaiklimat.ru

Погода и климат >> Архив погоды >> Россия >> Ивановская область >> Иваново


АРХИВ ПОГОДЫ в Иванове

Время (UTC), дата Ветер
(напр.,м/с)
 
Видим.   Явления Облачность Т
(С)
Тd
(С)
f
(%)
Тe
(С)
Тes
(С)
Комфортность P
(гПа)
Po
(гПа)
Тmin
(С)
Tmax
(С)
R
(мм)
R24
(мм)
S
(см)
06 12.12 Ю 1 2000 м дымка {ливн. осадки, туман} 10/10 120 м
[St]
-0.9 -1.3 97 -3 -3 тепло 1019.4 1003.5
09 12.12 Ю 1 4000 м дымка 10/10 120 м
[St]
-0.6 -1.0 97 -3 -3 тепло 1019.9 1004.0
12 12.12 штиль 0 4000 м 10/10 150 м
[St]
-0.3 -0.8 96 -2 -2 тепло 1019.8 1003.9
15 12.12 В 1 1800 м дымка 10/10 120 м
[St]
-1.0 -1.4 97 -3 -3 тепло 1020.4 1004.5 -0.2
18 12.12 СВ 2 4000 м дымка 10/10 300 м
[Sc]
-1.1 -1.8 95 -5 -5 тепло 1020.5 1004.6
21 12.12 СВ 3 4000 м дымка 10/10 270 м
[Sc]
-1.2 -2.2 93 -6 -6 тепло 1020.9 1005.0
00 13.12 СВ 2 2000 м снег 10/0 300 м
[As op]
-1.3 -2.0 95 -5 -5 тепло 1021.6 1005.6
03 13.12 СВ 3 1200 м ливневой снег 10/10 90 м
[Cb calv]
-1.4 -2.1 95 -7 -7 по сезону 1022.0 1006.0 -1.5 2 17
06 13.12 СВ 3 1500 м ливневой снег 10/10 300 м
[Cb calv]
-1.7 -2.4 95 -7 -7 по сезону 1023.3 1007.3 -1.7
09 13.12 СВ 4 4000 м слабый ливневой снег 10/10 300 м
[Cb calv]
-1.4 -2.7 91 -7 -7 по сезону 1024.4 1008.4
12 13.12 СВ 4 10 км в посл. час ливневой снег 10/10 300 м
[Cb calv]
-1.7 -3.2 89 -8 -8 по сезону 1025.1 1009.1
15 13.12 В 3 10 км 10/10 300 м
[Sc]
-1.8 -3.3 89 -7 -7 по сезону 1026.6 1010.5 -1.3 2
18 13.12 СВ 3 10 км 10/10 300 м
[Sc]
-1.9 -3.7 87 -7 -7 по сезону 1027.6 1011.5
21 13.12 СВ 3 10 км 10/10 450 м
[Sc]
-2.1 -4.0 87 -7 -7 по сезону 1028.5 1012.4
00 14.12 СВ 3 10 км 10/10 300 м
[Sc]
-2.3 -4.0 88 -7 -7 по сезону 1028.7 1012.6
03 14.12 СВ 3 10 км 10/10 210 м
[Sc]
-2.5 -3.8 91 -8 -8 по сезону 1029.0 1012.9 -2.5 20
06 14.12 СВ 2 10 км 10/10 240 м
[Sc]
-2.9 -4.4 89 -7 -7 по сезону 1029.1 1012.9 -2.9
09 14.12 СВ 3 10 км 10/10 240 м
[Sc diur, vesp]
-2.7 -4.3 89 -8 -8 по сезону 1029.6 1013.4
12 14.12 СВ 2 10 км 10/10 240 м
[Sc diur, vesp]
-2.7 -4.2 89 -7 -7 по сезону 1029.8 1013.7
15 14.12 СВ 2 4000 м слабый ливневой снег 10/10 240 м
[Cb cap]
-2.9 -4.1 91 -7 -7 по сезону 1030.4 1014.2 -2.5 0.1
18 14.12 СВ 2 10 км {ливн. осадки} 10/10 210 м
[Cb cap]
-3.5 -4.5 93 -8 -8 по сезону 1030.3 1014.1
21 14.12 С 2 10 км 10/10 210 м
[Sc]
-4.1 -4.9 94 -8 -8 по сезону 1030.7 1014.4
00 15.12 С 2 10 км 10/10 240 м
[Sc]
-5.0 -6.0 93 -9 -9 по сезону 1031.2 1014.9
03 15.12 С 3 10 км 10/10 240 м
[Sc]
-6.8 -7.6 94 -13 -13 по сезону 1031.7 1015.2 -6.8 0.1 20
06 15.12 С 3 10 км 10/10 180 м
[St]
-8.2 -9.1 93 -14 -14 по сезону 1032.8 1016.3 -8.2
09 15.12 С 3 10 км 10/10 180 м
[St]
-9.1 -10.3 91 -15 -15 по сезону 1033.9 1017.3
12 15.12 С 3 10 км 10/10 240 м
[Sc]
-9.8 -11.1 90 -16 -16 прохладно 1035.2 1018.5
15 15.12 С 3 10 км слабый снег 10/8 240 м
[Sc Ac und]
-11.5 -12.7 91 -17 -17 прохладно 1036.6 1019.8 -6.8 0.0
18 15.12 СЗ 2 10 км {снег} 10/0
[Ac und]
-11.5 -12.8 90 -16 -16 прохладно 1037.0 1020.2
21 15.12 СЗ 2 10 км 8/0
[Ac trans]
-11.3 -13.0 87 -16 -16 прохладно 1037.6 1020.8
00 16.12 СЗ 2 10 км ясно -15.7 -16.9 90 -21 -21 холодно 1039.0 1021.9
03 16.12 СЗ 1 10 км ясно -16.9 -18.5 87 -20 -20 холодно 1039.7 1022.4 -17.0 0.0 18
06 16.12 СЗ 1 2000 м в посл. час туман 8/8 300 м
[Sc]
-16.7 -18.5 86 -19 -19 холодно 1040.0 1022.8 -18.0
09 16.12 З 1 10 км 4/4 600 м
[Sc]
-15.3 -17.1 86 -18 -17 прохладно 1040.3 1023.1
12 16.12 СЗ 2 10 км 3/0
[Ac As]
-14.8 -16.8 85 -20 -20 холодно 1040.3 1023.2
15 16.12 штиль 0 4000 м дымка 3/0
[Ac As]
-17.2 -19.1 85 -17 -17 прохладно 1041.0 1023.7 -13.5
18 16.12 штиль 0 2000 м дымка 3/0
[Ac As]
-20.0 -22.4 81 -20 -20 холодно 1041.3 1023.8
21 16.12 штиль 0 4000 м дымка 3/0
[Ac As]
-20.9 -23.3 81 -21 -21 холодно 1041.3 1023.8
00 17.12 штиль 0 4000 м дымка 3/0
[Ac As]
-22.3 -24.8 80 -22 -22 очень
холодно
1041.4 1023.8
03 17.12 штиль 0 4000 м дымка 3/0
[Ac As]
-22.1 -24.6 80 -22 -22 очень
холодно
1040.9 1023.3 -22.6 18
06 17.12 штиль 0 1800 м дымка 10/10 90 м
[St]
-21.0 -23.4 81 -21 -21 холодно 1040.7 1023.2
09 17.12 ЮЗ 1 4000 м дымка {туман} 6/0
[Ci fib]
-18.5 -20.8 82 -21 -21 холодно 1040.7 1023.3
12 17.12 штиль 0 4000 м дымка {туман} 8/3 100 м
[St Ci fib]
-16.9 -19.0 84 -17 -17 прохладно 1040.1 1022.8
15 17.12 ЮВ 1 4000 м дымка 10/8 630 м
[Sc Ci fib]
-15.8 -17.7 85 -18 -18 прохладно 1040.2 1023.0 -15.7
18 17.12 штиль 0 4000 м дымка 10/8 450 м
[Sc As trans Ci fib]
-13.5 -15.2 87 -14 -14 по сезону 1040.4 1023.3
21 17.12 В 1 4000 м дымка 10/6 300 м
[Sc As trans]
-12.5 -14.1 88 -15 -15 по сезону 1040.1 1023.2
00 18.12 ЮВ 1 4000 м дымка 10/8 500 м
[Sc As trans]
-11.2 -12.7 89 -13 -13 по сезону 1039.6 1022.7
03 18.12 В 2 4000 м дымка 10/10 660 м
[Sc]
-9.5 -10.8 90 -14 -14 по сезону 1038.9 1022.2 -15.8 18
06 18.12 ЮВ 2 4000 м дымка 10/10 960 м
[Sc]
-8.8 -10.1 90 -13 -13 по сезону 1038.8 1022.1
09 18.12 ЮВ 2 10 км 10/10 360 м
[Sc]
-7.6 -8.9 90 -12 -12 по сезону 1039.0 1022.4
12 18.12 ЮВ 2 4000 м дымка 10/6 900 м
[Sc Ac As]
-7.0 -8.2 91 -11 -11 по сезону 1038.6 1022.1
15 18.12 Ю 1 4000 м дымка 10/10 210 м
[Sc]
-7.2 -8.2 93 -10 -10 по сезону 1039.1 1022.5 -7.0
18 18.12 Ю 1 н/о слабый снег 10/10 400 м
[Sc]
-7.3 -8.3 93 -10 -10 по сезону 1039.1 1022.5
21 18.12 Ю 1 4000 м слабый снег 10/6 600 м
[Sc As op]
-7.3 -8.4 92 -10 -10 по сезону 1039.6 1023.0
00 19.12 ЮЗ 1 4000 м слабый снег 10/6 450 м
[Sc As op]
-8.7 -9.9 91 -11 -11 по сезону 1040.0 1023.3
03 19.12 штиль 0 4000 м слабый снег 10/5 480 м
[Sc As op]
-9.0 -10.2 91 -10 -10 по сезону 1039.9 1023.2 -9.1 0.0 18

 

Местоположение метеостанции Иваново (Ивановская область, Россия): широта 56.95 долгота 40.97 высота над уровнем моря 126 м.

В архиве по умолчанию представлена погода в Иванове за последнюю неделю. Архивные данные за месяц целиком и за предыдущие месяцы, начиная с января 2011 года, Вы можете получить, выбрав интересующий диапазон дат из раскрывающегося списка и нажав кнопку "Ввод!".


*Определитесь, кто Вы:
робот инопланетянин человек

Внимание! Время в таблицах - всемирное. Для получения местного времени необходимо прибавить поправку, которая в Иванове равна 3 ч.

Смотрите также архив погоды в соседних городах и на ближайших метеорологических станциях:

Погода в Тейково (Ивановская область, Россия) (28 км)
Погода в Шуе (Ивановская область, Россия) (28 км)
Погода в Пешном (Атырауская область, Казахстан) (43 км)
Погода в Приволжске (Ивановская область, Россия) (51 км)
Погода в Плесе (Ивановская область, Россия) (63 км)
Погода в Вичуге (Ивановская область, Россия) (65 км)
Погода в Суздали (Владимирская область, Россия) (67 км)
Погода в Коврове (Владимирская область, Россия) (70 км)
Погода в Гаврилов-Яме (Ярославская область, Россия) (80 км)
Погода в Костроме (Костромская область, Россия) (88 км)

Пояснения к столбцам:

Ветер - указаны скорость ветра в м/с - средняя за 10 мин, порывы в срок и между сроками (в фигурных скобках) и направление, откуда дует ветер: С - северный, СВ - северо-восточный, В - восточный, ЮВ - юго-восточный, Ю - южный, ЮЗ - юго-западный, З - западный, СЗ - северо-западный.
Видимость - горизонтальная дальность видимости в метрах или километрах. При видимости от 1 до 10 км при отсутствии осадков обычно наблюдается дымка, при ухудшении видимости до 1 км и менее - туман. В сухую погоду видимость может ухудшаться дымом, пылью или мглою.
Явления - указаны атмосферные явления, наблюдавшиеся в срок или в последний час перед сроком; фигурными скобками обозначены явления, наблюдавшиеся между сроками (за 1-3 часа до срока); квадратными скобками обозначены град или гололедные отложения с указанием их диаметра в мм.
Облачность - указаны через наклонную черту общая и нижняя облачность в баллах и высота нижней границы облаков в метрах; квадратными скобками обозначены формы облаков: Ci - перистые, Cs - перисто-слоистые, Cc - перисто-кучевые, Ac - высококучевые, As - высокослоистые, Sc - слоисто-кучевые, Ns - слоисто-дождевые, Cu - кучевые, Cb - кучево-дождевые. Подробнее классификацию облаков см. в Атласе облаков (PDF).
T - Температура воздуха - температура, измеренная на высоте 2 м над землей.
Td - Температура точки росы - температура, при понижении до которой содержащийся в воздухе водяной пар достигнет насыщения.
f - Относительная влажность воздуха - влажноcть воздуха, измеренная на высоте 2 м над землей.
Te - Эффективная температура - температура, которую ощущает одетый по сезону человек в тени. Характеристика душности погоды. При расчете учитывается влияние влажности воздуха и скорости ветра на теплоощущения человека.
Tes - Эффективная температура на солнце - температура, которую ощущает человек, с поправкой на солнечный нагрев. Характеристика знойности погоды. Зависит от высоты солнца над горизонтом, облачности и скорости ветра. Ночью, в пасмурную погоду, а также при ветре 12 м/с и более поправка равна нулю.
P - Атмосферное давление - приведенное к уровню моря атмосферное давление.
Po - Атмосферное давление - измеренное на уровне метеостанции атмосферное давление.
Tmin - Минимальная температура - минимум температуры воздуха на высоте 2 м над землей.
Tmax - Максимальная температура - максимум температуры воздуха на высоте 2 м над землей.
R - Количество осадков - Количество выпавших осадков за период времени, мм. При наведении курсора мыши на число - период времени, за который выпало указанное количество осадков.
R24 - Количество осадков - Количество выпавших осадков за 24 часа, мм.
S - Снежный покров - Высота снежного покрова, см. При наведении курсора мыши на число - состояние снежного покрова и степень покрытия местности в баллах.